[Iaude] MPEC B38: 2024 BO [a=1.83,e=0.45,i=2.1,H=25.2]
    mpec at marsden.cfa.harvard.edu 
    mpec at marsden.cfa.harvard.edu
       
    Thu Jan 18 19:17:03 EST 2024
    
    
  
M.P.E.C. 2024-B38                              Issued 2024 January 19, 00:14 UT
     The Minor Planet Electronic Circulars contain information on unusual
         minor planets, routine data on comets and natural satellites,
         and occasional editorial announcements.  They are published
    on behalf of Division F of the International Astronomical Union by the
          Minor Planet Center, Smithsonian Astrophysical Observatory,
                          Cambridge, MA 02138, U.S.A.
			  
             Prepared using the Tamkin Foundation Computer Network
                              MPC at CFA.HARVARD.EDU
            URL https://www.minorplanetcenter.net/    ISSN 1523-6714
                                    2024 BO                                     
Observations:
     K24B00O  C2024 01 03.38461006 55 42.910+39 04 11.37         21.45GVEB038F51
     K24B00O  C2024 01 03.39593006 55 44.027+39 04 29.47         22.05GVEB038F51
     K24B00O  C2024 01 03.40728206 55 45.110+39 04 47.02         22.22GVEB038F51
     K24B00O  C2024 01 03.41865706 55 46.210+39 05 04.36         23.66GVEB038F51
     K24B00O  C2024 01 08.36936407 08 18.987+41 19 26.79         21.72GVEB038F51
     K24B00O  C2024 01 08.39220707 08 22.407+41 20 08.71         21.73GVEB038F51
     K24B00O  C2024 01 16.29369607 42 54.162+45 32 09.13         21.15GVEB038V00
     K24B00O* C2024 01 16.29431007 42 54.356+45 32 10.28         21.23GVEB038V00
     K24B00O  C2024 01 16.29985807 42 56.142+45 32 21.80         22.15GVEB038V00
     K24B00O  C2024 01 16.30046907 42 56.322+45 32 23.03         21.76GVEB038V00
     K24B00O  C2024 01 16.30597807 42 58.104+45 32 34.30         21.42GVEB038V00
     K24B00O  C2024 01 16.30658707 42 58.302+45 32 35.66         21.39GVEB038V00
     K24B00O  C2024 01 16.31209607 43 00.070+45 32 47.04         20.92GVEB038V00
     K24B00O  C2024 01 16.31270507 43 00.268+45 32 48.12         21.57GVEB038V00
     K24B00O KC2024 01 16.37060 07 43 19.01 +45 34 42.0                VEB038291
     K24B00O KC2024 01 16.37307607 43 19.715+45 34 45.88         20.93GVEB038V06
     K24B00O KC2024 01 16.37593 07 43 20.77 +45 34 52.3                VEB038291
     K24B00O KC2024 01 16.37783907 43 21.270+45 34 55.38         21.27GVEB038V06
     K24B00O KC2024 01 16.38260707 43 22.804+45 35 04.27         21.08GVEB038V06
     K24B00O KC2024 01 16.38737007 43 24.409+45 35 13.16         21.19GVEB038V06
     K24B00O 1C2024 01 16.95130 07 47 03.13 +45 54 00.8          20.4 VXEB038033
     K24B00O 1C2024 01 16.95455 07 47 04.32 +45 54 08.1          20.4 VXEB038033
     K24B00O 1C2024 01 16.95779 07 47 05.38 +45 54 14.4          20.4 VXEB038033
     K24B00O KC2024 01 17.14542907 48 23.25 +46 00 46.4          21.0 GVEB038H21
     K24B00O KC2024 01 17.15102107 48 25.30 +46 00 59.4          21.3 GVEB038H21
     K24B00O KC2024 01 17.15391007 48 26.37 +46 01 05.5          21.2 GVEB038H21
     K24B00O  C2024 01 17.21744607 48 51.624+46 03 24.90         21.3 GVEB038H01
     K24B00O  C2024 01 17.22171407 48 53.160+46 03 34.39         21.8 GVEB038H01
     K24B00O  C2024 01 17.23910607 48 59.394+46 04 12.52         20.9 GVEB038H01
     K24B00O  C2024 01 17.24444607 49 01.299+46 04 24.16         21.5 GVEB038H01
     K24B00O KC2024 01 17.30406707 49 23.023+46 06 31.90         20.89GVEB038V06
     K24B00O KC2024 01 17.32102407 49 29.068+46 07 06.10         20.94GVEB038V06
     K24B00O KC2024 01 17.33580107 49 34.342+46 07 36.19         21.12GVEB038V06
     K24B00O KC2024 01 17.33820607 49 35.195+46 07 40.73         21.23GVEB038V06
     K24B00O 1C2024 01 18.93246 08 01 16.12 +47 01 04.3          20.3 VXEB038033
     K24B00O 1C2024 01 18.93425 08 01 16.95 +47 01 08.1          20.3 VXEB038033
     K24B00O 1C2024 01 18.93604 08 01 17.65 +47 01 12.2          19.8 VXEB038033
     K24B00O 1C2024 01 18.93797 08 01 18.58 +47 01 16.4          20.3 VXEB038033
     K24B00O KB2024 01 18.96869908 01 33.37 +47 02 28.1          20.5 GXEB038I93
     K24B00O KB2024 01 18.97437808 01 35.79 +47 02 39.7          20.8 GXEB038I93
     K24B00O KB2024 01 18.97979308 01 38.10 +47 02 51.3          20.0 GXEB038I93
Observer details:
033 Karl Schwarzschild Observatory, Tautenburg.  Observers S. Melnikov, C.
    Hogner, F. Ludwig, M. Hartmann, B. Stecklum.  Measurer B. Stecklum.
    1.34-m f/3 Schmidt + CCD.
291 LPL/Spacewatch II.  Observer T. H. Bressi.  1.8-m f/2.7 reflector + CCD.
F51 Pan-STARRS 1, Haleakala.  Observers J. Herman, T. Lowe, P. Minguez, A.
    Schultz, I. Smith.  Measurers K. Chambers, T. de Boer, J. Fairlamb, H.
    Gao, M. Huber, C.-C. Lin, E. Magnier, Y. Ramanjooloo, R. Wainscoat, R.
    Weryk.  1.8-m Ritchey-Chretien + CCD.
H01 Magdalena Ridge Observatory, Socorro.  Observers W. H. Ryan, E. V. Ryan.
    Measurer W. H. Ryan.  2.4-m f/8.9 Ritchey-Chretien + CCD.
H21 Astronomical Research Observatory, Westfield.  Observer R. Holmes.
    Measurers T. Linder, R. Holmes, L. Horn.  0.76-m f/3.0 astrograph + CCD.
I93 St Pardon de Conques.  Observer F. Losse.  0.40-m f/3.7 reflector + CMO.
V00 Kitt Peak-Bok.  Observer R. A. Mastaler.  Measurers M. J. Brucker, C. E.
    Woodward, D. Fay, J. B. Fazekas, D. C. Fuls, A. R. Gibbs, H. Groeller, J.
    K. Hogan, R. A. Kowalski, S. M. Larson, C. Lejoly, G. J. Leonard, R. A.
    Mastaler, R. S. McMillan, D. Rankin, R. L. Seaman, A. Serrano, F. C.
    Shelly, K. W. Wierzchos.  2.25-m reflector + 4x4K mosaic CCD.
V06 Catalina Sky Survey-Kuiper.  Observer G. J. Leonard.  Measurers T. Beuden,
    V. F. Carvajal, D. Fay, J. B. Fazekas, D. C. Fuls, A. R. Gibbs, A. D.
    Grauer, H. Groeller, J. K. Hogan, R. A. Kowalski, S. M. Larson, G. J.
    Leonard, D. Rankin, R. L. Seaman, F. C. Shelly, K. W. Wierzchos.  1.55-m
    reflector + 1K CCD.
Orbital elements:
2024 BO                                                  Earth MOID = 0.0334 AU
Epoch 2023 Sept. 13.0 TT = JDT 2460200.5                Veres                   
M 297.48629              (2000.0)            P               Q                  
n   0.39969412     Peri.  133.18366     -0.86247230     -0.50599871             
a   1.8252298      Node    16.42726     +0.45309603     -0.78107728             
e   0.4450684      Incl.    2.09466     +0.22548952     -0.36590107             
P   2.47           H   25.25          G   0.15           U   7                  
Residuals in seconds of arc
240103 F51  0.2-  0.0     240116 291  0.2+  0.5-    240117 H01  0.1+  0.0
240103 F51  0.1+  0.2+    240116 V06  0.1+  0.3-    240117 H01  0.0   0.1+
240103 F51  0.0   0.0     240116 291  0.4+  0.4-    240117 V06  0.1-  0.0
240103 F51  0.1+  0.3-    240116 V06  0.0   0.1+    240117 V06  0.0   0.4-
240108 F51  0.2-  0.1+    240116 V06  0.3-  0.0     240117 V06  0.0   0.1+
240108 F51  0.1+  0.1+    240116 V06  0.1+  0.1-    240117 V06  0.0   0.2-
240116 V00  0.0   0.1+    240116 033  0.4-  0.1-    240118 033  0.2-  0.0
240116 V00  0.0   0.0     240116 033  0.0   0.5+    240118 033  0.4+  0.1+
240116 V00  0.0   0.0     240116 033  1.0-  0.1+    240118 033  0.4-  0.5+
240116 V00  0.1-  0.0     240117 H21  0.0   0.4+    240118 033  0.5+  0.6+
240116 V00  0.0   0.1-    240117 H21 (0.2+  0.9+)   240118 I93  0.1+  0.3-
240116 V00  0.0   0.0     240117 H21 (0.4+  0.5+)   240118 I93  0.2-  0.5-
240116 V00  0.0   0.1+    240117 H01  0.1+  0.0     240118 I93  0.4-  0.1-
240116 V00  0.0   0.0     240117 H01  0.1+  0.1+
Ephemeris:
2024 BO                  a,e,i = 1.83, 0.45, 2                   q = 1.0129
Date    TT    R. A. (2000) Decl.     Delta      r    Elong.  Phase     V
2023 12 20    06 35 28.1 +34 07 50   0.2214  1.1993   165.2    12.1    23.1
...
2024 01 04    06 57 00.0 +39 19 33   0.1448  1.1229   163.5    14.4    22.1
...
2024 01 12    07 21 11.2 +43 09 44   0.1117  1.0883   158.6    19.3    21.7
...
2024 01 18    07 54 13.1 +46 29 46   0.09033 1.0659   154.2    23.6    21.3
2024 01 19    08 01 46.1 +47 03 27   0.08705 1.0625   153.5    24.4    21.2
2024 01 20    08 10 04.6 +47 36 25   0.08387 1.0592   152.7    25.2    21.2
...
2024 01 26    09 19 53.7 +50 01 10   0.06697 1.0415   147.4    30.6    20.8
...
2024 02 03    11 44 35.1 +44 51 53   0.05276 1.0242   136.1    41.8    20.5
...
2024 02 18    14 43 12.7 +09 45 39   0.06341 1.0128   111.2    65.4    21.6
M. P. C. Staff               (C) Copyright 2024 MPC           M.P.E.C. 2024-B38
    
    
More information about the Iaude
mailing list